This is the latest recevied weather packets stored in our database for station/object K4DNM. If no packets are shown the sender has not sent any weather packets the latest 10 day(s).
| Time | Temp. | Humidity | Pressure | Rain* | Wind** | Luminosity | Snow |
|---|---|---|---|---|---|---|---|
| 1777742598 | 11.11° C | 97% | 1011.6 hPa | 1.27 mm | - | 142 W/m² | - |
| 1777742238 | 11.11° C | 97% | 1011.8 hPa | 1.52 mm | - | 105 W/m² | - |
| 1777741937 | 11.11° C | 98% | 1011.5 hPa | 1.52 mm | - | 151 W/m² | - |
| 1777741638 | 11.11° C | 98% | 1011.6 hPa | 1.78 mm | - | 149 W/m² | - |
| 1777741327 | 11.11° C | 97% | 1011.6 hPa | 1.78 mm | - | 184 W/m² | - |
| 1777741023 | 11.11° C | 98% | 1011.9 hPa | 1.78 mm | - | 178 W/m² | - |
| 1777740709 | 11.11° C | 97% | 1012 hPa | 2.03 mm | - | 134 W/m² | - |
| 1777740396 | 11.11° C | 98% | 1012.2 hPa | 2.03 mm | - | 138 W/m² | - |
| 1777740093 | 11.11° C | 98% | 1012.4 hPa | 1.78 mm | - | 151 W/m² | - |
| 1777739779 | 11.11° C | 98% | 1012.5 hPa | 1.78 mm | - | 151 W/m² | - |
| 1777739479 | 11.11° C | 97% | 1012.5 hPa | 1.52 mm | - | 105 W/m² | - |
| 1777739178 | 11.11° C | 97% | 1012.6 hPa | 1.52 mm | - | 96 W/m² | - |
| 1777738878 | 11.11° C | 98% | 1012.8 hPa | 1.27 mm | - | 91 W/m² | - |
| 1777738581 | 11.11° C | 98% | 1012.8 hPa | 1.27 mm | - | 75 W/m² | - |
| 1777738278 | 11.11° C | 97% | 1012.7 hPa | 1.02 mm | - | 80 W/m² | - |
| 1777737981 | 11.11° C | 98% | 1012.8 hPa | 1.02 mm | - | 90 W/m² | - |
| 1777737684 | 11.11° C | 98% | 1012.8 hPa | 1.02 mm | - | 87 W/m² | - |
| 1777737441 | 11.11° C | 98% | 1012.6 hPa | 1.02 mm | - | 79 W/m² | - |
| 1777737082 | 11.11° C | 98% | 1012.4 hPa | 1.02 mm | - | 81 W/m² | - |
| 1777736781 | 11.11° C | 98% | 1012.4 hPa | 1.27 mm | - | 85 W/m² | - |
| 1777736545 | 11.11° C | 98% | 1012.3 hPa | 1.52 mm | - | 87 W/m² | - |
| 1777736182 | 11.11° C | 98% | 1012.2 hPa | 1.78 mm | - | 105 W/m² | - |
| 1777735926 | 11.11° C | 98% | 1012.2 hPa | 2.03 mm | - | 102 W/m² | - |
| 1777735565 | 11.11° C | 98% | 1012.2 hPa | 2.29 mm | - | 126 W/m² | - |
| 1777735327 | 11.11° C | 98% | 1012.3 hPa | 2.29 mm | - | 134 W/m² | - |
* Rain latest hour (hover to see other rain measurements)
** Current wind speed in m/s (hover to see current wind gust speed)